Regional Weather Roundup
Issued by NWS

Home | Current Version | Previous Version | Text Only | Print | Product List | Glossary On
Versions: 1 2 3 4 5 6 7 8 9 10 11 12 13 14 15 16 17 18 19 20 21 22 23 24 25 26 27 28 29 30 31 32 33 34 35 36 37 38 39 40 41 42 43 44 45 46 47 48 49 50
000
ASUS43 KDTX 270810
RWRMI
MICHIGAN HOURLY REGIONAL WEATHER ROUNDUP
NATIONAL WEATHER SERVICE DETROIT/PONTIAC MI
400 AM EDT THU JUL 27 2017

NOTE: "FAIR" INDICATES FEW OR NO CLOUDS BELOW 12,000 FEET WITH NO
SIGNIFICANT WEATHER AND/OR OBSTRUCTION TO VISIBILITY.

MIZ047>049-052>055-059>063-066>070-074>076-081>083-270900-
SOUTHEAST LOWER MICHIGAN

CITY           SKY/WX    TMP DP  RH WIND       PRES   REMARKS
ADRIAN         CLOUDY    66  64  93 CALM      29.97F
ALMA           CLOUDY    68  65  90 CALM      29.95F
ANN ARBOR      MOCLDY    60  60 100 CALM      29.96F FOG
BAD AXE        CLOUDY    68  65  92 CALM      29.96F
CARO           CLOUDY    67  65  94 CALM      29.95F
DETROIT CITY   PTCLDY    70  68  93 S5        29.96F
DETROIT        MOCLDY    69  68  96 CALM      29.97F
FLINT          CLOUDY    69  63  81 CALM      29.96F
GROSSE ILE     PTCLDY    71  67  87 SW6       29.95F
HILLSDALE      CLOUDY    66  61  82 S5        29.96F
HOWELL         CLOUDY    66  63  90 CALM      29.97F

CITY           SKY/WX    TMP DP  RH WIND       PRES   REMARKS
JACKSON        CLOUDY    68  62  81 CALM      29.96F
LAMBERTVILLE   CLOUDY    65  64  96 CALM      29.96F
LANSING        CLOUDY    71  62  73 SW3       29.96F
LAPEER         MOCLDY    68  65  93 CALM      29.97F
MASON          PTCLDY    66  63  89 CALM      29.96F
MONROE         MOCLDY    66  64  96 CALM      29.95F
MT. CLEMENS    CLOUDY    68  67  98 S6        29.95F
PONTIAC        CLOUDY    69  67  93 CALM      29.97S
PORT HOPE        N/A     69  66  90 NW5       29.94F
PORT HURON     CLOUDY    68  66  94 CALM      29.96F FOG
TRI CITIES     CLOUDY    70  69  97 CALM      29.96F
MIDLAND        LGT RAIN  69  69 100 CALM      29.94F
TROY           CLOUDY    71  67  88 SW5       29.99S
SAGINAW HB     CLOUDY    68  64  88 CALM      29.95F
$$
MIZ043>046-050>051-056>058-064>065-071>073-077>080-270900-
SOUTHWEST LOWER MICHIGAN

CITY           SKY/WX    TMP DP  RH WIND       PRES   REMARKS
BATTLE CREEK   PTCLDY    69  65  86 S5        29.95F
BENTON HARBOR  CLOUDY    69  66  90 CALM      29.92F
BIG RAPIDS     CLOUDY    67  66  94 NW5       29.95F FOG
COLDWATER      CLOUDY    69  67  94 CALM      29.95F
FREMONT        CLOUDY    69  69 100 CALM      29.93F
HOLLAND        CLOUDY    71  66  84 S3        29.93F
GRAND RAPIDS   CLOUDY    71  67  87 CALM      29.94F
IONIA          MOCLDY    67  65  94 CALM      29.93F
KALAMAZOO      CLOUDY    69  64  84 CALM      29.95F
LUDINGTON      CLOUDY    67  67 100 CALM      29.93F FOG
MARSHALL       PTCLDY    65  65  98 CALM      29.95F
MOUNT PLEASANT CLOUDY    69  67  91 CALM      29.95F
MUSKEGON       CLOUDY    71  68  90 CALM      29.93S
SOUTH HAVEN    CLEAR     69  68  97 CALM      29.93F
$$
MIZ016>042-270900-
NORTHERN LOWER MICHIGAN

CITY           SKY/WX    TMP DP  RH WIND       PRES   REMARKS
ALPENA         CLOUDY    68  68 100 CALM      29.95S
BEAVER ISLAND  FOG       57  57 100 CALM      29.97S VSB 1/4
BELLAIRE       CLOUDY    68  67  94 CALM      29.95F FOG
CADILLAC       CLOUDY    70  67  89 CALM      29.96F FOG
CHARLEVOIX     FOG       65  65 100 CALM      29.99F VSB 1/4
FRANKFORT      CLOUDY    69  69 100 CALM      29.94F FOG
GAYLORD        FOG       66  64  93 CALM      29.98F VSB 1
GRAYLING       CLOUDY    67  64  90 CALM      29.98F
HARBOR SPRINGS FOG       65  64  94 CALM      29.96F VSB 1/4
HOUGHTON LAKE  CLOUDY    70  67  90 W5        29.97F
MANISTEE       CLOUDY    68  67  96 CALM      29.94S
OSCODA         MOCLDY    68  67  96 CALM      29.93F
PELLSTON       FOG       63  63 100 CALM      29.96F VSB 1/4
ROGERS CITY    FOG       64  63  97 CALM      29.96S VSB 1/2
TRAVERSE CITY  CLOUDY    70  67  90 N3        29.94F
$$
MIZ007>008-015-270900-
EASTERN UPPER MICHIGAN

CITY           SKY/WX    TMP DP  RH WIND       PRES   REMARKS
KINROSS        LGT RAIN  61  61 100 SW5       29.96S VSB 1/2
MACKINAC ISLAN DRZL/FOG  64  64 100 W7        29.96S VSB 1/4
NEWBERRY       CLEAR     58  57  97 NW5       29.97S
S. S. MARIE    CLEAR     56  54  93 NW3       29.95S
MUNISING         N/A     57  56  96 S7        29.98R
$$
MIZ004>006-011>014-085-270900-
CENTRAL UPPER MICHIGAN

CITY           SKY/WX    TMP DP  RH WIND       PRES   REMARKS
MANISTIQUE     CLEAR     56  53  89 NW3       29.97S
ESCANABA       PTCLDY    56  56 100 NW3       29.97F
MENOMINEE      CLEAR     63  62  97 N7        29.97F
SAWYER-GWINN   PTCLDY    55  52  90 W3        30.01S
$$
MIZ001>003-009>011-084-270900-
WESTERN UPPER MICHIGAN

CITY           SKY/WX    TMP DP  RH WIND       PRES   REMARKS
IRON MOUNTAIN  CLEAR     55  52  89 N5        30.00S
HOUGHTON       MOCLDY    62  55  77 NW7       30.00S
COPPER HARBOR    N/A     63  57  81 CALM      29.99R
IRONWOOD       CLEAR     55  55 100 CALM      30.05S FOG
$$

ABBREVIATIONS USED IN REMARKS
   TC - TEMPERATURE IN CELSIUS
  WCI - WIND CHILL INDEX
   HX - HEAT INDEX
  VSB - VISIBILITY





USA.gov is the U.S. government's official web portal to all federal, state and local government web resources and services.